• In Uzbekistan
  • List of Countries
  • For 7 days
  • Water Temperature
  • Satellite Maps
  • Weather Map
  • Weather Widgets
  • user-avatar
    Login

    Hourly Weather Adelaide

    Today, 30 April, Sunday

    Time Temperature Precipitation Wind Pressure Humidity
    00:00 +13°C° 0 mm 1 mps 763 mmHg 91%
    01:00 +13°C° 0 mm 1 mps 763 mmHg 91%
    02:00 +13°C° 0 mm 1 mps 763 mmHg 91%
    03:00 +13°C° 0 mm 1 mps 763 mmHg 90%
    04:00 +13°C° 0 mm 1 mps 763 mmHg 90%
    05:00 +13°C° 0 mm 1 mps 763 mmHg 90%
    06:00 +13°C° 0 mm 1 mps 763 mmHg 90%
    07:00 +15°C° 0 mm 1 mps 763 mmHg 82%
    08:00 +18°C° 0 mm 1 mps 763 mmHg 74%
    09:00 +18°C° 0 mm 2 mps 762 mmHg 66%
    10:00 +19°C° 0 mm 2 mps 762 mmHg 63%
    11:00 +19°C° 0 mm 2 mps 761 mmHg 60%
    12:00 +20°C° 0 mm 2 mps 761 mmHg 57%
    13:00 +20°C° 0 mm 2 mps 760 mmHg 56%
    14:00 +20°C° 0 mm 2 mps 760 mmHg 54%
    15:00 +20°C° 0 mm 2 mps 760 mmHg 53%
    16:00 +19°C° 0 mm 2 mps 759 mmHg 59%
    17:00 +18°C° 0 mm 2 mps 759 mmHg 65%
    18:00 +17°C° 0 mm 2 mps 759 mmHg 71%
    19:00 +16°C° 0 mm 2 mps 759 mmHg 75%
    20:00 +16°C° 0 mm 2 mps 759 mmHg 78%
    21:00 +15°C° 0 mm 2 mps 759 mmHg 82%
    22:00 +15°C° 0 mm 2 mps 759 mmHg 83%
    23:00 +15°C° 0 mm 2 mps 759 mmHg 83%

    Tomorrow, 1 May, Monday

    Time Temperature Precipitation Wind Pressure Humidity
    00:00 +14°C° 0 mm 3 mps 758 mmHg 84%
    01:00 +14°C° 0 mm 3 mps 758 mmHg 83%
    02:00 +14°C° 0 mm 3 mps 758 mmHg 82%
    03:00 +14°C° 0 mm 3 mps 758 mmHg 80%
    04:00 +14°C° 0 mm 4 mps 758 mmHg 81%
    05:00 +14°C° 0 mm 4 mps 758 mmHg 81%
    06:00 +14°C° 0 mm 4 mps 758 mmHg 82%
    07:00 +15°C° 0.1 mm 4 mps 758 mmHg 78%
    08:00 +16°C° 0.1 mm 5 mps 758 mmHg 75%
    09:00 +17°C° 0.1 mm 5 mps 759 mmHg 72%
    10:00 +17°C° 0.4 mm 5 mps 759 mmHg 75%
    11:00 +18°C° 0.4 mm 4 mps 759 mmHg 77%
    12:00 +17°C° 0.4 mm 4 mps 759 mmHg 80%
    13:00 +17°C° 0.1 mm 4 mps 759 mmHg 77%
    14:00 +17°C° 0.1 mm 4 mps 759 mmHg 74%
    15:00 +17°C° 0.1 mm 4 mps 759 mmHg 71%
    16:00 +15°C° 0 mm 4 mps 760 mmHg 71%
    17:00 +15°C° 0 mm 4 mps 760 mmHg 72%
    18:00 +14°C° 0 mm 3 mps 761 mmHg 73%
    19:00 +13°C° 0 mm 3 mps 761 mmHg 74%
    20:00 +13°C° 0 mm 3 mps 762 mmHg 75%
    21:00 +13°C° 0 mm 3 mps 762 mmHg 76%
    22:00 +12°C° 0 mm 3 mps 762 mmHg 76%
    23:00 +12°C° 0 mm 3 mps 763 mmHg 76%

    Day after tomorrow, 2 May, Tuesday

    Time Temperature Precipitation Wind Pressure Humidity
    00:00 +12°C° 0 mm 3 mps 763 mmHg 76%
    01:00 +12°C° 0 mm 3 mps 763 mmHg 76%
    02:00 +12°C° 0 mm 3 mps 763 mmHg 75%
    03:00 +12°C° 0 mm 3 mps 763 mmHg 74%
    04:00 +12°C° 0 mm 3 mps 763 mmHg 74%
    05:00 +12°C° 0 mm 3 mps 764 mmHg 73%
    06:00 +12°C° 0 mm 3 mps 764 mmHg 72%
    07:00 +13°C° 0 mm 3 mps 765 mmHg 68%
    08:00 +13°C° 0 mm 3 mps 765 mmHg 63%
    09:00 +14°C° 0 mm 3 mps 766 mmHg 59%
    10:00 +16°C° 0 mm 3 mps 765 mmHg 55%
    11:00 +17°C° 0 mm 3 mps 765 mmHg 51%
    12:00 +17°C° 0 mm 3 mps 765 mmHg 48%
    13:00 +17°C° 0 mm 3 mps 765 mmHg 50%
    14:00 +17°C° 0 mm 3 mps 765 mmHg 52%
    15:00 +17°C° 0 mm 3 mps 765 mmHg 54%
    16:00 +16°C° 0.1 mm 3 mps 765 mmHg 60%
    17:00 +14°C° 0.1 mm 3 mps 766 mmHg 67%
    18:00 +14°C° 0.1 mm 3 mps 766 mmHg 73%
    19:00 +13°C° 0 mm 3 mps 766 mmHg 77%
    20:00 +13°C° 0 mm 3 mps 767 mmHg 81%
    21:00 +13°C° 0 mm 2 mps 767 mmHg 85%
    22:00 +13°C° 0 mm 2 mps 767 mmHg 85%
    23:00 +13°C° 0 mm 2 mps 767 mmHg 86%

    3 May, Wednesday

    Time Temperature Precipitation Wind Pressure Humidity
    00:00 +12°C° 0 mm 2 mps 767 mmHg 87%
    01:00 +12°C° 0 mm 2 mps 767 mmHg 87%
    02:00 +12°C° 0 mm 2 mps 768 mmHg 87%
    03:00 +12°C° 0 mm 2 mps 768 mmHg 87%
    04:00 +12°C° 0 mm 2 mps 768 mmHg 88%
    05:00 +10°C° 0 mm 2 mps 768 mmHg 88%
    06:00 +10°C° 0 mm 3 mps 769 mmHg 88%
    07:00 +11°C° 0 mm 3 mps 769 mmHg 80%
    08:00 +12°C° 0 mm 3 mps 769 mmHg 72%
    09:00 +13°C° 0 mm 3 mps 770 mmHg 64%
    10:00 +14°C° 0 mm 3 mps 770 mmHg 59%
    11:00 +16°C° 0 mm 2 mps 769 mmHg 53%
    12:00 +17°C° 0 mm 2 mps 769 mmHg 47%
    13:00 +17°C° 0 mm 2 mps 769 mmHg 47%
    14:00 +17°C° 0 mm 2 mps 768 mmHg 46%
    15:00 +17°C° 0 mm 2 mps 768 mmHg 46%
    16:00 +15°C° 0 mm 2 mps 768 mmHg 51%
    17:00 +14°C° 0 mm 2 mps 768 mmHg 56%
    18:00 +11°C° 0 mm 3 mps 769 mmHg 61%
    19:00 +11°C° 0 mm 3 mps 769 mmHg 62%
    20:00 +11°C° 0 mm 3 mps 769 mmHg 64%
    21:00 +10°C° 0 mm 2 mps 770 mmHg 65%
    22:00 +10°C° 0 mm 2 mps 770 mmHg 66%
    23:00 +10°C° 0 mm 2 mps 769 mmHg 66%

    4 May, Thursday

    Time Temperature Precipitation Wind Pressure Humidity
    00:00 +10°C° 0 mm 2 mps 769 mmHg 67%
    01:00 +9°C° 0 mm 2 mps 769 mmHg 68%
    02:00 +9°C° 0 mm 2 mps 769 mmHg 69%
    03:00 +8°C° 0 mm 2 mps 769 mmHg 70%
    04:00 +8°C° 0 mm 2 mps 769 mmHg 72%
    05:00 +8°C° 0 mm 2 mps 769 mmHg 74%
    06:00 +7°C° 0 mm 2 mps 769 mmHg 77%
    07:00 +9°C° 0 mm 2 mps 769 mmHg 70%
    08:00 +12°C° 0 mm 2 mps 770 mmHg 62%
    09:00 +14°C° 0 mm 2 mps 770 mmHg 55%
    10:00 +15°C° 0 mm 2 mps 769 mmHg 49%
    11:00 +18°C° 0 mm 1 mps 769 mmHg 43%
    12:00 +19°C° 0 mm 1 mps 768 mmHg 37%
    13:00 +19°C° 0 mm 1 mps 768 mmHg 37%
    14:00 +19°C° 0 mm 1 mps 768 mmHg 37%
    15:00 +19°C° 0 mm 1 mps 767 mmHg 37%
    16:00 +16°C° 0 mm 1 mps 767 mmHg 44%
    17:00 +14°C° 0 mm 1 mps 767 mmHg 51%
    18:00 +13°C° 0 mm 2 mps 768 mmHg 58%
    19:00 +12°C° 0 mm 2 mps 768 mmHg 58%
    20:00 +12°C° 0 mm 2 mps 768 mmHg 59%
    21:00 +12°C° 0 mm 2 mps 768 mmHg 60%
    22:00 +10°C° 0 mm 2 mps 768 mmHg 59%
    23:00 +10°C° 0 mm 2 mps 767 mmHg 58%

    5 May, Friday

    Time Temperature Precipitation Wind Pressure Humidity
    00:00 +10°C° 0 mm 2 mps 767 mmHg 57%
    01:00 +10°C° 0 mm 2 mps 767 mmHg 57%
    02:00 +10°C° 0 mm 2 mps 766 mmHg 57%
    03:00 +10°C° 0 mm 2 mps 766 mmHg 56%
    04:00 +10°C° 0 mm 2 mps 766 mmHg 56%
    05:00 +10°C° 0 mm 2 mps 767 mmHg 56%
    06:00 +10°C° 0 mm 2 mps 767 mmHg 56%
    07:00 +13°C° 0 mm 2 mps 767 mmHg 52%
    08:00 +14°C° 0 mm 2 mps 767 mmHg 48%
    09:00 +16°C° 0 mm 2 mps 767 mmHg 44%
    10:00 +17°C° 0 mm 2 mps 767 mmHg 42%
    11:00 +18°C° 0 mm 2 mps 766 mmHg 41%
    12:00 +19°C° 0 mm 2 mps 766 mmHg 39%
    13:00 +20°C° 0 mm 2 mps 765 mmHg 39%
    14:00 +20°C° 0 mm 2 mps 765 mmHg 40%
    15:00 +21°C° 0 mm 1 mps 765 mmHg 40%
    16:00 +19°C° 0 mm 1 mps 765 mmHg 47%
    17:00 +16°C° 0 mm 1 mps 765 mmHg 53%
    18:00 +14°C° 0 mm 1 mps 765 mmHg 60%
    19:00 +14°C° 0 mm 1 mps 766 mmHg 60%
    20:00 +14°C° 0 mm 1 mps 766 mmHg 61%
    21:00 +13°C° 0 mm 1 mps 766 mmHg 61%
    22:00 +13°C° 0 mm 1 mps 766 mmHg 61%
    23:00 +13°C° 0 mm 2 mps 766 mmHg 62%
    Show more